Location: El Para�so
(10.4896°N, 66.9245°W)
Time: 05:12:48
(UTC+00:00)

Meteor 2-3 Rocket - Pass Details

Date: 08 August 2020
Orbit: 841 x 886 km, 81.2° (Epoch: 21 September)

Event Time Altitude Azimuth Distance (km) Brightness Sun altitude
Rises 23:35:40 0° 191° (S) 3,448 6.8 -11.8°
Reaches altitude 10° 23:38:06 10° 193° (SSW) 2,517 6.1 -12.4°
Maximum altitude 23:43:47 67° 275° (W) 948 4.2 -13.7°
Drops below altitude 10° 23:49:32 10° 358° (N) 2,537 6.5 -15.1°
Sets 23:52:00 0° 1° (N) 3,478 7.2 -15.6°
